• In Belarus
  • List of Countries
  • For 7 days
  • Water Temperature
  • Weather Map
  • Weather Widgets
  • user-avatar
    Login

    Hourly Weather Chengam

    Today, 17 August, Saturday

    Time Temperature Precipitation Wind Pressure Humidity
    00:00 +29°C° 0.1 mm 3 mps 732 mmHg 68%
    01:00 +29°C° 0.1 mm 3 mps 731 mmHg 69%
    02:00 +28°C° 0.1 mm 3 mps 731 mmHg 71%
    03:00 +28°C° 0 mm 3 mps 731 mmHg 73%
    04:00 +28°C° 0 mm 3 mps 731 mmHg 74%
    05:00 +27°C° 0 mm 3 mps 732 mmHg 78%
    06:00 +27°C° 0.3 mm 3 mps 732 mmHg 78%
    07:00 +27°C° 0.3 mm 3 mps 732 mmHg 78%
    08:00 +27°C° 0.3 mm 4 mps 733 mmHg 78%
    09:00 +28°C° 0 mm 3 mps 733 mmHg 76%
    10:00 +28°C° 0 mm 3 mps 733 mmHg 73%
    11:00 +32°C° 0 mm 4 mps 733 mmHg 64%
    12:00 +33°C° 0.1 mm 5 mps 732 mmHg 61%
    13:00 +33°C° 0.1 mm 5 mps 731 mmHg 58%
    14:00 +34°C° 0.1 mm 5 mps 731 mmHg 54%
    15:00 +34°C° 0.2 mm 4 mps 730 mmHg 57%
    16:00 +33°C° 0.2 mm 4 mps 730 mmHg 60%
    17:00 +31°C° 0.2 mm 3 mps 730 mmHg 62%
    18:00 +31°C° 0.3 mm 3 mps 731 mmHg 65%
    19:00 +30°C° 0.3 mm 3 mps 731 mmHg 69%
    20:00 +29°C° 0.3 mm 3 mps 732 mmHg 72%
    21:00 +29°C° 0.2 mm 3 mps 732 mmHg 73%
    22:00 +28°C° 0.2 mm 3 mps 732 mmHg 75%
    23:00 +28°C° 0.2 mm 3 mps 732 mmHg 76%

    Tomorrow, 18 August, Sunday

    Time Temperature Precipitation Wind Pressure Humidity
    00:00 +27°C° 0.7 mm 2 mps 732 mmHg 78%
    01:00 +27°C° 0.7 mm 2 mps 732 mmHg 80%
    02:00 +27°C° 0.7 mm 2 mps 731 mmHg 82%
    03:00 +26°C° 0.9 mm 2 mps 731 mmHg 83%
    04:00 +26°C° 0.9 mm 1 mps 731 mmHg 85%
    05:00 +26°C° 0.9 mm 1 mps 731 mmHg 86%
    06:00 +26°C° 3.9 mm 1 mps 732 mmHg 88%
    07:00 +26°C° 3.9 mm 2 mps 733 mmHg 90%
    08:00 +25°C° 3.9 mm 2 mps 733 mmHg 93%
    09:00 +26°C° 1.8 mm 2 mps 734 mmHg 91%
    10:00 +26°C° 1.8 mm 2 mps 734 mmHg 90%
    11:00 +26°C° 1.8 mm 2 mps 734 mmHg 89%
    12:00 +26°C° 0.8 mm 2 mps 733 mmHg 88%
    13:00 +26°C° 0.8 mm 2 mps 732 mmHg 88%
    14:00 +26°C° 0.8 mm 3 mps 732 mmHg 87%
    15:00 +26°C° 0 mm 2 mps 731 mmHg 87%
    16:00 +27°C° 0 mm 2 mps 731 mmHg 86%
    17:00 +27°C° 0 mm 2 mps 731 mmHg 85%
    18:00 +26°C° 0 mm 2 mps 732 mmHg 86%
    19:00 +26°C° 0 mm 2 mps 732 mmHg 86%
    20:00 +26°C° 0 mm 2 mps 733 mmHg 87%
    21:00 +26°C° 0 mm 2 mps 733 mmHg 87%
    22:00 +26°C° 0 mm 2 mps 733 mmHg 87%
    23:00 +26°C° 0 mm 2 mps 733 mmHg 86%

    Day after tomorrow, 19 August, Monday

    Time Temperature Precipitation Wind Pressure Humidity
    00:00 +26°C° 0.3 mm 2 mps 733 mmHg 87%
    01:00 +26°C° 0.3 mm 2 mps 733 mmHg 87%
    02:00 +26°C° 0.3 mm 2 mps 732 mmHg 88%
    03:00 +26°C° 0.6 mm 2 mps 732 mmHg 89%
    04:00 +25°C° 0.6 mm 1 mps 732 mmHg 90%
    05:00 +25°C° 0.6 mm 1 mps 732 mmHg 91%
    06:00 +25°C° 1.4 mm 1 mps 733 mmHg 90%
    07:00 +25°C° 1.4 mm 1 mps 733 mmHg 90%
    08:00 +26°C° 1.4 mm 2 mps 734 mmHg 89%
    09:00 +26°C° 0.4 mm 2 mps 734 mmHg 86%
    10:00 +27°C° 0.4 mm 2 mps 734 mmHg 83%
    11:00 +27°C° 0.4 mm 2 mps 734 mmHg 80%
    12:00 +28°C° 0.1 mm 2 mps 733 mmHg 77%
    13:00 +28°C° 0.1 mm 2 mps 732 mmHg 74%
    14:00 +29°C° 0.1 mm 2 mps 732 mmHg 71%
    15:00 +29°C° 0 mm 2 mps 731 mmHg 69%
    16:00 +30°C° 0 mm 2 mps 731 mmHg 68%
    17:00 +30°C° 0 mm 2 mps 731 mmHg 67%
    18:00 +29°C° 0.1 mm 2 mps 732 mmHg 70%
    19:00 +28°C° 0.1 mm 1 mps 732 mmHg 74%
    20:00 +28°C° 0.1 mm 1 mps 733 mmHg 77%
    21:00 +27°C° 0.2 mm 1 mps 733 mmHg 78%
    22:00 +27°C° 0.2 mm 1 mps 733 mmHg 79%
    23:00 +27°C° 0.2 mm 1 mps 733 mmHg 80%

    20 August, Tuesday

    Time Temperature Precipitation Wind Pressure Humidity
    00:00 +26°C° 0 mm 1 mps 733 mmHg 81%
    01:00 +26°C° 0 mm 1 mps 732 mmHg 82%
    02:00 +26°C° 0 mm 1 mps 732 mmHg 83%
    03:00 +26°C° 0 mm 2 mps 732 mmHg 83%
    04:00 +26°C° 0 mm 2 mps 732 mmHg 83%
    05:00 +26°C° 0 mm 2 mps 732 mmHg 83%
    06:00 +27°C° 0 mm 2 mps 732 mmHg 79%
    07:00 +28°C° 0 mm 2 mps 733 mmHg 74%
    08:00 +29°C° 0 mm 3 mps 734 mmHg 70%
    09:00 +30°C° 0 mm 3 mps 734 mmHg 66%
    10:00 +31°C° 0 mm 3 mps 734 mmHg 62%
    11:00 +33°C° 0 mm 3 mps 733 mmHg 59%
    12:00 +34°C° 0.1 mm 3 mps 733 mmHg 57%
    13:00 +34°C° 0.1 mm 3 mps 732 mmHg 54%
    14:00 +35°C° 0.1 mm 4 mps 731 mmHg 52%
    15:00 +34°C° 0.5 mm 3 mps 731 mmHg 56%
    16:00 +34°C° 0.5 mm 3 mps 731 mmHg 60%
    17:00 +32°C° 0.5 mm 2 mps 730 mmHg 63%
    18:00 +31°C° 0.7 mm 2 mps 731 mmHg 67%
    19:00 +30°C° 0.7 mm 2 mps 731 mmHg 71%
    20:00 +28°C° 0.7 mm 2 mps 732 mmHg 76%
    21:00 +28°C° 0.3 mm 2 mps 732 mmHg 76%
    22:00 +28°C° 0.3 mm 3 mps 732 mmHg 77%
    23:00 +28°C° 0.3 mm 3 mps 733 mmHg 77%

    21 August, Wednesday

    Time Temperature Precipitation Wind Pressure Humidity
    00:00 +27°C° 0.1 mm 3 mps 732 mmHg 79%
    01:00 +27°C° 0.1 mm 3 mps 732 mmHg 81%
    02:00 +27°C° 0.1 mm 3 mps 731 mmHg 83%
    03:00 +27°C° 0.1 mm 3 mps 731 mmHg 83%
    04:00 +27°C° 0.1 mm 3 mps 731 mmHg 82%
    05:00 +26°C° 0.1 mm 3 mps 731 mmHg 82%
    06:00 +27°C° 0 mm 3 mps 732 mmHg 80%
    07:00 +27°C° 0 mm 3 mps 732 mmHg 77%
    08:00 +28°C° 0 mm 3 mps 733 mmHg 75%
    09:00 +29°C° 0 mm 4 mps 733 mmHg 71%
    10:00 +30°C° 0 mm 5 mps 733 mmHg 67%
    11:00 +32°C° 0 mm 5 mps 733 mmHg 64%
    12:00 +32°C° 0.1 mm 4 mps 732 mmHg 64%
    13:00 +30°C° 0.1 mm 4 mps 731 mmHg 65%
    14:00 +30°C° 0.1 mm 3 mps 730 mmHg 65%
    15:00 +31°C° 0.4 mm 3 mps 730 mmHg 65%
    16:00 +31°C° 0.4 mm 2 mps 730 mmHg 64%
    17:00 +31°C° 0.4 mm 2 mps 730 mmHg 64%
    18:00 +30°C° 0.1 mm 2 mps 731 mmHg 68%
    19:00 +29°C° 0.1 mm 2 mps 731 mmHg 71%
    20:00 +28°C° 0.1 mm 2 mps 732 mmHg 74%
    21:00 +28°C° 0 mm 2 mps 732 mmHg 75%
    22:00 +28°C° 0 mm 2 mps 732 mmHg 76%
    23:00 +27°C° 0 mm 2 mps 732 mmHg 77%

    22 August, Thursday

    Time Temperature Precipitation Wind Pressure Humidity
    00:00 +27°C° 0 mm 3 mps 732 mmHg 77%
    01:00 +27°C° 0 mm 3 mps 731 mmHg 78%
    02:00 +27°C° 0 mm 3 mps 731 mmHg 78%
    03:00 +27°C° 0 mm 3 mps 731 mmHg 78%
    04:00 +26°C° 0 mm 3 mps 731 mmHg 78%
    05:00 +26°C° 0 mm 3 mps 731 mmHg 79%
    06:00 +27°C° 0 mm 3 mps 731 mmHg 78%
    07:00 +27°C° 0 mm 3 mps 732 mmHg 77%
    08:00 +27°C° 0 mm 3 mps 732 mmHg 76%
    09:00 +29°C° 0 mm 4 mps 732 mmHg 69%
    10:00 +32°C° 0 mm 5 mps 732 mmHg 62%
    11:00 +34°C° 0 mm 6 mps 732 mmHg 55%
    12:00 +34°C° 0 mm 6 mps 731 mmHg 53%
    13:00 +35°C° 0 mm 6 mps 730 mmHg 51%
    14:00 +36°C° 0 mm 5 mps 730 mmHg 49%
    15:00 +35°C° 0.2 mm 4 mps 730 mmHg 53%
    16:00 +34°C° 0.2 mm 3 mps 730 mmHg 57%
    17:00 +32°C° 0.2 mm 2 mps 730 mmHg 62%
    18:00 +31°C° 0.2 mm 3 mps 730 mmHg 63%
    19:00 +30°C° 0.2 mm 3 mps 731 mmHg 65%
    20:00 +30°C° 0.2 mm 3 mps 732 mmHg 67%
    21:00 +29°C° 0.1 mm 3 mps 732 mmHg 69%
    22:00 +29°C° 0.1 mm 3 mps 732 mmHg 71%
    23:00 +28°C° 0.1 mm 2 mps 732 mmHg 73%
    Show more